Location: Seattle
(47.6064°N, 122.3308°W)
Time: 03:52:43
(UTC-08:00)

N. Korean satellite - Pass Details

Date: 01 December 2022
Orbit: 407 x 441 km, 97.3° (Epoch: 05 February)

Event Time Altitude Azimuth Distance (km) Brightness Sun altitude
Rises 05:05:59 0° 19° (NNE) 2,531 10.4 -24.6°
Reaches altitude 10° 05:08:10 10° 28° (NNE) 1,646 9.5 -24.3°
Maximum altitude 05:11:30 38° 98° (E) 730 7.9 -23.7°
Drops below altitude 10° 05:14:46 10° 168° (SSE) 1,614 9.4 -23.2°
Sets 05:16:49 0° 176° (S) 2,448 10.3 -22.8°
